Change the Weather History Date:

Sunday, December 29, 2013

  Actual Average (KHBI) Record (KHBI)
Temperature  
Mean Temperature 45 °F -  
Max Temperature 53 °F 51 °F 76 °F (1984)
Min Temperature 37 °F 32 °F 16 °F (1977)
Degree Days  
Heating Degree Days 20    
Moisture  
Dew Point 44 °F    
Average Humidity 95    
Maximum Humidity 100    
Minimum Humidity 59    
Precipitation  
Precipitation 0.00 in - - ()
Sea Level Pressure  
Sea Level Pressure 29.87 in    
Wind  
Wind Speed 4 mph (WSW)    
Max Wind Speed 12 mph    
Max Gust Speed 24 mph    
Visibility 8 miles    
Events Fog , Rain    
Averages and records for this station are not official NWS values.
T = Trace of Precipitation, MM = Missing Value Source: NWS Daily Summary

Daily Weather History Graph

Daily Weather History Graph

Search for Another Location

Airport or City:

Trip Planner

Search our weather history database for the weather conditions in past years. The results will help you decide how hot, cold, wet, or windy it might be!

Date:

Astronomy

Dec. 29, 2013 Rise Set
Actual Time 7:27 AM EST 5:13 PM EST
Civil Twilight 6:58 AM EST 5:41 PM EST
Nautical Twilight 6:26 AM EST 6:13 PM EST
Astronomical Twilight 5:55 AM EST 6:44 PM EST
Moon 4:11 AM EST (12/29) 2:47 PM EST (12/29)
Length of Visible Light 10h 42m
Length of Day
9h 46m
Waning Crescent, 11% of the Moon is Illuminated
Dec 29
Waning Crescent
Jan 1
New
Jan 7
First Quarter
Jan 15
Full
Jan 24
Last Quarter

Hourly Weather History & Observations

Time (EST) Temp. Windchill Dew Point Humidity Pressure Visibility Wind Dir Wind Speed Gust Speed Precip Events Conditions
12:15 AM 46.4 °F 45.2 °F 34.3 °F 63% 30.13 in 10.0 mi East 3.5 mph - N/A Rain Light Rain
12:35 AM 46.8 °F - 34.5 °F 62% 30.10 in 10.0 mi NNE 3.5 mph - N/A Rain Light Rain
12:55 AM 46.4 °F 44.3 °F 34.7 °F 64% 30.08 in 10.0 mi NNE 4.6 mph - N/A   Light Drizzle
1:15 AM 47.1 °F - 33.4 °F 59% 30.06 in 10.0 mi NNE 3.5 mph - N/A Rain Rain
1:35 AM 44.1 °F - 40.3 °F 87% 30.07 in 10.0 mi Calm Calm - N/A Rain Rain
1:55 AM 42.8 °F - 41.9 °F 97% 30.06 in 10.0 mi Calm Calm - N/A Rain Light Rain
2:15 AM 42.3 °F 40.5 °F 41.4 °F 97% 30.06 in 4.0 mi NNE 3.5 mph - N/A Rain Heavy Rain
2:35 AM 41.9 °F 40.0 °F 41.0 °F 97% 30.04 in 10.0 mi North 3.5 mph - N/A Rain Rain
2:55 AM 41.4 °F 37.6 °F 41.0 °F 99% 30.04 in 7.0 mi North 5.8 mph - N/A Rain Heavy Rain
3:15 AM 41.0 °F 38.0 °F 41.0 °F 100% 30.03 in 2.0 mi North 4.6 mph - N/A Rain Heavy Rain
3:35 AM 41.0 °F 37.1 °F 41.0 °F 100% 30.01 in 7.0 mi NNE 5.8 mph - N/A Rain Heavy Rain
3:55 AM 40.6 °F 37.5 °F 40.6 °F 100% 30.01 in 3.0 mi NNW 4.6 mph - N/A Rain Light Rain
4:15 AM 40.6 °F - 40.6 °F 100% 30.01 in 5.0 mi Calm Calm - N/A Rain Rain
4:35 AM 40.8 °F 36.2 °F 40.8 °F 100% 29.98 in 10.0 mi NNE 6.9 mph - N/A Rain Rain
4:55 AM 41.2 °F 36.0 °F 41.2 °F 100% 29.95 in 10.0 mi NE 8.1 mph - N/A Rain Rain
5:15 AM 41.4 °F 36.8 °F 41.4 °F 100% 29.93 in 10.0 mi NE 6.9 mph - N/A Rain Light Rain
5:35 AM 41.7 °F 38.0 °F 41.7 °F 100% 29.92 in 10.0 mi East 5.8 mph - N/A Rain Rain
5:55 AM 41.9 °F 38.2 °F 41.9 °F 100% 29.90 in 10.0 mi ENE 5.8 mph - N/A Rain Rain
6:15 AM 42.1 °F 36.6 °F 42.1 °F 100% 29.87 in 10.0 mi East 9.2 mph - N/A Rain Light Rain
6:35 AM 42.8 °F 39.3 °F 42.8 °F 100% 29.86 in 10.0 mi East 5.8 mph - N/A Rain Heavy Rain
6:55 AM 43.9 °F 39.9 °F 43.9 °F 100% 29.84 in 10.0 mi East 6.9 mph - N/A Rain Heavy Rain
7:15 AM 44.6 °F 41.4 °F 44.6 °F 100% 29.83 in 10.0 mi East 5.8 mph - N/A Rain Rain
7:35 AM 45.0 °F 43.5 °F 45.0 °F 100% 29.81 in 10.0 mi ESE 3.5 mph - N/A Rain Rain
7:55 AM 45.7 °F 42.7 °F 45.7 °F 100% 29.81 in 10.0 mi SE 5.8 mph - N/A Rain Rain
8:15 AM 46.4 °F 45.2 °F 46.4 °F 100% 29.80 in 7.0 mi ESE 3.5 mph - N/A Rain Rain
8:35 AM 48.0 °F - 48.0 °F 100% 29.78 in 10.0 mi SE 5.8 mph - N/A Rain Light Rain
8:55 AM 50.4 °F - 50.4 °F 100% 29.78 in 10.0 mi South 5.8 mph - N/A Rain Rain
9:15 AM 50.0 °F - 50.0 °F 100% 29.74 in 10.0 mi SE 4.6 mph - N/A Rain Rain
9:35 AM 50.4 °F - 50.4 °F 100% 29.78 in 10.0 mi West 10.4 mph 24.2 mph N/A Rain Heavy Rain
9:55 AM 49.1 °F - 49.1 °F 100% 29.77 in 5.0 mi SSW 3.5 mph - N/A Rain Rain
10:15 AM 49.6 °F - 49.6 °F 100% 29.75 in 5.0 mi Calm Calm - N/A Rain Heavy Rain
10:35 AM 50.4 °F - 50.4 °F 100% 29.75 in 7.0 mi West 3.5 mph - N/A Rain Rain
10:55 AM 49.3 °F - 49.3 °F 100% 29.78 in 10.0 mi West 8.1 mph 18.4 mph N/A Rain Rain
11:15 AM 47.5 °F - 47.3 °F 99% 29.77 in 10.0 mi Calm Calm - N/A   Light Drizzle
11:35 AM 48.2 °F - 48.0 °F 99% 29.75 in 10.0 mi Calm Calm - N/A   Overcast
11:55 AM 48.7 °F - 48.4 °F 99% 29.75 in 10.0 mi West 5.8 mph - N/A   Overcast
12:15 PM 48.6 °F - 48.2 °F 99% 29.76 in 10.0 mi West 5.8 mph - N/A   Overcast
12:35 PM 49.1 °F - 48.4 °F 97% 29.76 in 10.0 mi WSW 4.6 mph - N/A   Overcast
12:55 PM 49.3 °F - 48.2 °F 96% 29.76 in 10.0 mi WSW 4.6 mph - N/A   Overcast
1:15 PM 50.2 °F - 48.7 °F 95% 29.74 in 10.0 mi WSW 4.6 mph - N/A   Overcast
1:35 PM 50.7 °F - 48.2 °F 91% 29.74 in 10.0 mi SW 9.2 mph 16.1 mph N/A   Overcast
1:55 PM 50.5 °F - 47.8 °F 90% 29.76 in 10.0 mi WSW 9.2 mph - N/A   Overcast
2:15 PM 51.3 °F - 48.2 °F 89% 29.75 in 10.0 mi WSW 11.5 mph 17.3 mph N/A   Overcast
2:35 PM 51.8 °F - 48.0 °F 87% 29.76 in 10.0 mi West 6.9 mph 17.3 mph N/A   Overcast
2:55 PM 52.3 °F - 47.7 °F 84% 29.76 in 10.0 mi WSW 8.1 mph - N/A   Overcast
3:15 PM 53.1 °F - 47.7 °F 82% 29.76 in 10.0 mi WSW 6.9 mph 10.4 mph N/A   Mostly Cloudy
3:35 PM 53.6 °F - 47.5 °F 80% 29.76 in 10.0 mi WSW 8.1 mph 16.1 mph N/A   Scattered Clouds
3:55 PM 53.6 °F - 47.8 °F 81% 29.77 in 10.0 mi West 6.9 mph - N/A   Scattered Clouds
4:15 PM 53.2 °F - 47.8 °F 82% 29.78 in 10.0 mi WSW 5.8 mph - N/A   Clear
4:35 PM 52.7 °F - 48.0 °F 84% 29.79 in 10.0 mi SW 5.8 mph - N/A   Clear
4:55 PM 51.8 °F - 47.7 °F 86% 29.79 in 10.0 mi WSW 3.5 mph - N/A   Clear
5:15 PM 50.7 °F - 47.5 °F 89% 29.80 in 10.0 mi SSW 3.5 mph - N/A   Clear
5:35 PM 49.6 °F - 47.5 °F 92% 29.81 in 10.0 mi SSW 3.5 mph - N/A   Clear
5:55 PM 47.5 °F - 46.4 °F 96% 29.82 in 10.0 mi Calm Calm - N/A   Clear
6:15 PM 45.5 °F - 45.5 °F 100% 29.82 in 7.0 mi Calm Calm - N/A   Clear
6:35 PM 43.5 °F - 43.5 °F 100% 29.84 in 0.8 mi Calm Calm - N/A   Mist
6:55 PM 43.3 °F - 43.3 °F 100% 29.85 in 5.0 mi Calm Calm - N/A   Clear
7:15 PM 43.9 °F 42.3 °F 43.9 °F 100% 29.85 in 3.0 mi SW 3.5 mph - N/A   Clear
7:35 PM 45.1 °F - 45.1 °F 100% 29.87 in 10.0 mi Calm Calm - N/A   Clear
7:55 PM 45.7 °F - 45.7 °F 100% 29.87 in 10.0 mi Calm Calm - N/A   Clear
8:15 PM 45.7 °F 44.4 °F 45.7 °F 100% 29.88 in 10.0 mi SW 3.5 mph - N/A   Clear
8:35 PM 45.3 °F 44.0 °F 45.3 °F 100% 29.89 in 10.0 mi West 3.5 mph - N/A   Clear
8:55 PM 44.8 °F - 44.8 °F 100% 29.89 in 10.0 mi Calm Calm - N/A   Clear
9:15 PM 42.8 °F - 42.8 °F 100% 29.90 in 2.5 mi Calm Calm - N/A   Clear
9:35 PM 39.6 °F - 39.6 °F 100% 29.90 in 0.2 mi Calm Calm - N/A Fog Fog
9:55 PM 39.6 °F - 39.6 °F 100% 29.91 in 0.5 mi Calm Calm - N/A Fog Fog
10:15 PM 38.1 °F - 38.1 °F 100% 29.92 in 0.5 mi Calm Calm - N/A Fog Fog
10:35 PM 37.8 °F - 37.8 °F 100% 29.93 in 0.5 mi Calm Calm - N/A Fog Fog
10:55 PM 39.2 °F - 39.2 °F 100% 29.93 in 1.5 mi Calm Calm - N/A   Overcast
11:15 PM 39.4 °F - 39.4 °F 100% 29.93 in 0.5 mi Calm Calm - N/A Fog Fog
11:35 PM 37.9 °F - 37.9 °F 100% 29.94 in 0.2 mi Calm Calm - N/A Fog Fog
11:55 PM 37.4 °F - 37.4 °F 100% 29.94 in 0.2 mi Calm Calm - N/A Fog Fog